Location: Bishopstone
(51.0167°N, 1.9000°W)
Time: 19:59:23
(UTC+00:00)

SL-16 R/B - Pass Details

Date: 16 September 2019
Orbit: 840 x 849 km, 71.0° (Epoch: 12 October)

Event Time Altitude Azimuth Distance (km) Brightness Sun altitude
Rises 18:53:40 0° 330° (NNW) 3,415 6.0 -6.0°
Reaches altitude 10° 18:56:50 10° 348° (NNW) 2,478 5.0 -6.5°
Maximum altitude 19:00:55 20° 34° (NE) 1,884 3.8 -7.1°
Drops below altitude 10° 19:04:58 10° 80° (E) 2,475 4.1 -7.8°
Enters shadow 19:05:39 - 85° (E) 2,655 4.2 -7.9°
